This demonstration page uses our WeatherBlox Daily Observations layout. Learn more.

Left ArrowRight Arrow

Hourly Observations for March 24, 2019

Temp ( °F °C ) Dew Point ( °F °C ) Humidity (%) Winds ( mph kmh ) Pressure ( in mb ) Visibility ( mi km ) Precip ( " mm )
12:52 am 00:52 Cloudy 50 10 42 5.6 74 74 SSE 7 11 29.96 1015 10 16 0.00 0.00
1:19 am 01:19 Cloudy 51 10.6 43 6.1 74 74 SSE 10 17 29.97 1015 10 16 0.00 0.00
1:52 am 01:52 Cloudy 51 10.6 44 6.7 77 77 SE 13 20 29.95 1014 9 14 0.00 0.00
2:52 am 02:52 Cloudy with Light Rain 49 9.4 45 7.2 86 86 SE 8 13 29.94 1014 10 16 0.00 0.03
3:07 am 03:07 Cloudy with Light Rain 49 9.4 45 7.2 86 86 ESE 7 11 29.95 1014 9 14 0.00 0.03
3:40 am 03:40 Cloudy with Light Rain 49 9.4 46 7.8 90 90 ESE 7 11 29.94 1014 7 11 0.01 0.25
3:52 am 03:52 Cloudy with Light Rain 49 9.4 46 7.8 90 90 ESE 7 11 29.93 1013 7 11 0.01 0.25
4:52 am 04:52 Cloudy with Rain 49 9.4 46 7.8 90 90 ESE 7 11 29.91 1013 4 6 0.10 2.54
5:52 am 05:52 Cloudy with Light Rain 49 9.4 46 7.8 90 90 E 9 15 29.92 1013 4 6 0.13 3.30
6:52 am 06:52 Cloudy 49 9.4 45 7.2 86 86 E 8 13 29.93 1014 8 13 0.01 0.25
7:52 am 07:52 Cloudy with Mist and Fog 49 9.4 45 7.2 86 86 Calm 29.94 1014 6 10 0.00 0.00
8:52 am 08:52 Cloudy with Drizzle 49 9.4 45 7.2 86 86 E 3 6 29.95 1014 7 11 0.00 0.03
9:36 am 09:36 Cloudy with Drizzle 48 8.9 45 7.2 89 89 N 7 11 29.98 1015 4 6 0.00 0.03
9:52 am 09:52 Cloudy with Mist and Fog 48 8.9 45 7.2 89 89 N 8 13 29.97 1015 4 6 0.00 0.03
10:25 am 10:25 Cloudy with Mist and Fog 48 8.9 45 7.2 89 89 NNW 8 13 29.99 1015 3 4 0.00 0.00
10:52 am 10:52 Cloudy with Mist and Fog 49 9.4 46 7.8 90 90 N 10 17 29.98 1015 3 4 0.00 0.00
11:00 am 11:00 Cloudy with Mist and Fog 48 8.9 45 7.2 89 89 N 10 17 29.99 1015 3 5 0.00 0.00
11:52 am 11:52 Cloudy with Mist and Fog 48 8.9 45 7.2 89 89 NNE 9 15 29.99 1016 4 6 0.00 0.00
12:24 pm 12:24 Cloudy with Mist and Fog 48 8.9 44 6.7 86 86 N 7 11 30.01 1016 5 8 0.00 0.00
12:52 pm 12:52 Cloudy with Light Rain 47 8.3 43 6.1 86 86 N 12 19 30.00 1016 2 3 0.00 0.03
12:59 pm 12:59 Cloudy with Light Rain 47 8.3 44 6.7 90 90 NNW 12 19 30.01 1016 2 3 0.00 0.03
1:16 pm 13:16 Cloudy with Mist and Fog 47 8.3 43 6.1 86 86 NNW 12 19 30.02 1017 3 4 0.00 0.03
1:29 pm 13:29 Cloudy with Mist and Fog 48 8.9 44 6.7 86 86 NNW 9 15 30.02 1016 4 6 0.00 0.03
1:52 pm 13:52 Cloudy 47 8.3 44 6.7 90 90 NNW 13 20 30.01 1016 7 11 0.00 0.03
2:52 pm 14:52 Cloudy with Mist and Fog 47 8.3 43 6.1 86 86 NNW 12 19 30.02 1017 5 8 0.00 0.00
3:52 pm 15:52 Cloudy 48 8.9 44 6.7 86 86 N 12 19 30.04 1017 7 11 0.00 0.00
4:52 pm 16:52 Cloudy with Mist and Fog 48 8.9 43 6.1 83 83 N 9 15 30.06 1018 4 6 0.00 0.00
5:52 pm 17:52 Cloudy with Mist and Fog 48 8.9 43 6.1 83 83 N 13 20 30.07 1018 4 6 0.00 0.00
6:52 pm 18:52 Cloudy with Mist and Fog 48 8.9 43 6.1 83 83 N 12 19 30.09 1019 4 6 0.00 0.00
7:52 pm 19:52 Cloudy with Mist and Fog 48 8.9 43 6.1 83 83 N 9 15 30.11 1020 4 6 0.00 0.00
8:52 pm 20:52 Cloudy with Mist and Fog 47 8.3 43 6.1 86 86 N 10 17 30.14 1021 3 5 0.00 0.03
9:52 pm 21:52 Cloudy with Drizzle 47 8.3 43 6.1 86 86 N 10 17 30.17 1022 3 5 0.00 0.03
10:52 pm 22:52 Cloudy with Mist and Fog 47 8.3 43 6.1 86 86 N 9 15 30.19 1022 3 5 0.00 0.03
11:31 pm 23:31 Cloudy with Mist and Fog 47 8.3 43 6.1 86 86 N 12 19 30.21 1023 4 6 0.00 0.00
11:52 pm 23:52 Cloudy with Haze 48 8.9 43 6.1 83 83 N 10 17 30.19 1023 4 6 0.00 0.00

Powered by AerisWeather